Location: Newark
(46.2350°N, 1.5859°E)
Time: 13:23:21
(UTC+00:00)

UNISAT 6 - Visible Passes

Search period start: 19 November 2019 00:00
Search period end: 29 November 2019 00:00
Orbit: 607 x 689 km, 97.7° (Epoch: 17 November)

Date Brightness Start Highest point End Pass type
(mag) Time Alt. Az. Time Alt. Az. Time Alt. Az.
20 Nov ? 06:07:44 10° E 06:09:48 13° ENE 06:11:53 10° NNE visible
24 Nov ? 06:14:15 10° E 06:16:54 16° ENE 06:19:34 10° NNE visible
27 Nov ? 05:57:13 10° ENE 05:58:23 11° NE 05:59:34 10° NE visible
28 Nov ? 06:20:55 10° ESE 06:23:59 18° ENE 06:27:08 10° NNE visible
